Weather History for Lawton, OK

Change the Weather History Date:

Saturday, December 21, 2013

  Actual Average Record
Temperature  
Mean Temperature 33 °F -  
Max Temperature 34 °F 50 °F 72 °F (1949)
Min Temperature 32 °F 28 °F -2 °F (1989)
Degree Days  
Heating Degree Days 32    
Moisture  
Dew Point 31 °F    
Average Humidity 94    
Maximum Humidity 100    
Minimum Humidity 87    
Precipitation  
Precipitation 0.29 in - - ()
Sea Level Pressure  
Sea Level Pressure 29.70 in    
Wind  
Wind Speed 7 mph (NNE)    
Max Wind Speed 16 mph    
Max Gust Speed 22 mph    
Visibility 6 miles    
Events Rain    
Averages and records for this station are not official NWS values.
T = Trace of Precipitation, MM = Missing Value Source: NWS Daily Summary

Daily Weather History Graph

Daily Weather History Graph

Search for Another Location

Airport:

Trip Planner

Search our weather history database for the weather conditions in past years. The results will help you decide how hot, cold, wet, or windy it might be!

Date:

Astronomy

Dec. 21, 2013 Rise Set
Actual Time 7:36 AM CST 5:27 PM CST
Civil Twilight 7:08 AM CST 5:55 PM CST
Nautical Twilight 6:37 AM CST 6:26 PM CST
Astronomical Twilight 6:06 AM CST 6:57 PM CST
Moon 9:35 PM CST (12/21) 10:12 AM CST (12/21)
Length of Visible Light 10h 46m
Length of Day
9h 50m
Waning Gibbous, 84% of the Moon is Illuminated
Dec 21
Waning Gibbous
Dec 25
Last Quarter
Jan 1
New
Jan 7
First Quarter
Jan 15
Full

Hourly Weather History & Observations

Time (CST) Temp. Windchill Dew Point Humidity Pressure Visibility Wind Dir Wind Speed Gust Speed Precip Events Conditions
12:15 AM 32.0 °F 27.5 °F 30.2 °F 93% 29.79 in 6.0 mi NE 4.6 mph - 0.01 in   Overcast
12:40 AM 32.0 °F 27.5 °F 30.2 °F 93% 29.79 in 7.0 mi NE 4.6 mph - 0.03 in   Overcast
12:53 AM 32.0 °F 27.5 °F 30.9 °F 96% 29.80 in 6.0 mi NNE 4.6 mph - 0.03 in   Overcast
1:46 AM 32.0 °F 24.2 °F 30.2 °F 93% 29.77 in 8.0 mi NNE 9.2 mph - 0.03 in Rain Light Freezing Rain
1:53 AM 32.0 °F 23.0 °F 30.9 °F 96% 29.80 in 9.0 mi NNE 11.5 mph - 0.03 in Rain Light Freezing Rain
2:02 AM 32.0 °F 27.5 °F 30.2 °F 93% 29.80 in 7.0 mi Variable 4.6 mph - 0.00 in Rain Light Freezing Rain
2:08 AM 33.8 °F 28.6 °F 30.2 °F 87% 29.80 in 5.0 mi NNE 5.8 mph - 0.01 in Rain Light Freezing Rain
2:53 AM 33.1 °F 27.7 °F 30.9 °F 92% 29.82 in 9.0 mi North 5.8 mph - 0.01 in Rain Light Freezing Rain
3:06 AM 33.8 °F 30.8 °F 30.2 °F 87% 29.81 in 5.0 mi NNE 3.5 mph - 0.01 in Rain Light Freezing Rain
3:28 AM 33.8 °F 27.0 °F 30.2 °F 87% 29.78 in 3.0 mi NNE 8.1 mph - 0.05 in Rain Light Freezing Rain
3:44 AM 33.8 °F 26.4 °F 30.2 °F 87% 29.77 in 5.0 mi NNE 9.2 mph - 0.06 in Rain Light Freezing Rain
3:53 AM 33.1 °F 24.4 °F 30.9 °F 92% 29.78 in 6.0 mi NE 11.5 mph - 0.06 in Rain Light Freezing Rain
4:53 AM 32.0 °F 22.1 °F 30.0 °F 92% 29.72 in 7.0 mi NE 13.8 mph - 0.00 in Rain Light Freezing Rain
5:03 AM 32.0 °F 22.5 °F 30.2 °F 93% 29.69 in 5.0 mi NE 12.7 mph - 0.01 in Rain Light Freezing Rain
5:28 AM 32.0 °F 22.5 °F 30.2 °F 93% 29.66 in 6.0 mi NNE 12.7 mph - 0.03 in Rain Light Freezing Rain
5:36 AM 32.0 °F 23.6 °F 30.2 °F 93% 29.68 in 8.0 mi NNE 10.4 mph - 0.03 in   Overcast
5:53 AM 32.0 °F 21.2 °F 30.9 °F 96% 29.70 in 6.0 mi North 16.1 mph - 0.04 in   Overcast
6:36 AM 32.0 °F 22.1 °F 30.2 °F 93% 29.63 in 9.0 mi ENE 13.8 mph - 0.06 in Rain Light Freezing Rain
6:53 AM 32.0 °F 21.6 °F 30.9 °F 96% 29.64 in 10.0 mi ENE 15.0 mph - 0.06 in Rain Light Freezing Rain
7:02 AM 32.0 °F 23.6 °F 30.2 °F 93% 29.65 in 10.0 mi NE 10.4 mph - 0.00 in   Overcast
7:53 AM 32.0 °F 23.6 °F 30.9 °F 96% 29.70 in 8.0 mi North 10.4 mph - 0.00 in   Overcast
8:12 AM 32.0 °F 25.6 °F 30.2 °F 93% 29.69 in 4.0 mi NNE 6.9 mph - 0.02 in Rain Light Freezing Rain
8:30 AM 32.0 °F 24.2 °F 30.2 °F 93% 29.68 in 3.0 mi NE 9.2 mph - 0.02 in Rain Light Freezing Rain
8:45 AM 32.0 °F 23.0 °F 30.2 °F 93% 29.65 in 3.0 mi NE 11.5 mph - 0.04 in Rain Light Freezing Rain
8:53 AM 32.0 °F 23.6 °F 30.9 °F 96% 29.68 in 4.0 mi NNE 10.4 mph - 0.04 in Rain Light Freezing Rain
9:19 AM 32.0 °F 23.6 °F 30.2 °F 93% 29.66 in 6.0 mi North 10.4 mph - 0.00 in Rain Light Freezing Rain
9:42 AM 33.8 °F 27.0 °F 30.2 °F 87% 29.68 in 4.0 mi North 8.1 mph - 0.00 in   Overcast
9:50 AM 32.0 °F 23.6 °F 30.2 °F 93% 29.66 in 1.8 mi NNE 10.4 mph - 0.00 in   Overcast
9:53 AM 32.0 °F 23.6 °F 30.9 °F 96% 29.69 in 1.5 mi North 10.4 mph - 0.00 in   Overcast
10:11 AM 32.0 °F 23.6 °F 30.2 °F 93% 29.68 in 3.0 mi North 10.4 mph - 0.00 in   Overcast
10:27 AM 32.0 °F 24.8 °F 32.0 °F 100% 29.69 in 1.8 mi North 8.1 mph - 0.01 in   Overcast
10:35 AM 32.0 °F 24.2 °F 32.0 °F 100% 29.68 in 1.2 mi North 9.2 mph - 0.02 in Rain Light Freezing Rain
10:42 AM 32.0 °F 23.0 °F 32.0 °F 100% 29.67 in 2.0 mi North 11.5 mph - 0.02 in Rain Light Freezing Rain
10:53 AM 32.0 °F 23.0 °F 30.9 °F 96% 29.68 in 4.0 mi North 11.5 mph 19.6 mph 0.02 in Rain Light Freezing Rain
11:27 AM 32.0 °F 23.0 °F 30.2 °F 93% 29.62 in 3.0 mi NNE 11.5 mph - 0.00 in   Overcast
11:35 AM 32.0 °F 21.6 °F 30.2 °F 93% 29.61 in 2.0 mi NNE 15.0 mph - 0.00 in   Overcast
11:51 AM 32.0 °F 24.2 °F 30.2 °F 93% 29.64 in 4.0 mi NNE 9.2 mph - 0.00 in   Overcast
11:53 AM 32.0 °F 25.6 °F 30.9 °F 96% 29.67 in 4.0 mi North 6.9 mph - 0.00 in   Overcast
12:07 PM 32.0 °F 26.4 °F 30.2 °F 93% 29.65 in 1.8 mi NNE 5.8 mph - 0.00 in   Overcast
12:30 PM 33.8 °F 27.7 °F 32.0 °F 93% 29.63 in 2.5 mi NNE 6.9 mph - 0.00 in   Overcast
12:53 PM 32.0 °F 21.6 °F 30.9 °F 96% 29.62 in 2.0 mi NNE 15.0 mph - 0.00 in   Overcast
1:06 PM 32.0 °F 23.0 °F 30.2 °F 93% 29.58 in 4.0 mi NNE 11.5 mph - N/A   Overcast
1:53 PM 33.1 °F 27.7 °F 32.0 °F 96% 29.62 in 3.0 mi North 5.8 mph - N/A   Overcast
2:00 PM 33.8 °F 28.6 °F 32.0 °F 93% 29.60 in 2.0 mi North 5.8 mph - N/A   Overcast
2:10 PM 33.8 °F 30.8 °F 32.0 °F 93% 29.60 in 1.5 mi NNE 3.5 mph - N/A   Overcast
2:22 PM 33.8 °F 30.8 °F 32.0 °F 93% 29.60 in 2.0 mi North 3.5 mph - N/A   Overcast
2:49 PM 32.0 °F - 32.0 °F 100% 29.62 in 1.5 mi Calm Calm - N/A   Overcast
2:53 PM 32.0 °F - 32.0 °F 100% 29.64 in 1.5 mi Calm Calm - N/A   Overcast
3:09 PM 32.0 °F 28.7 °F 32.0 °F 100% 29.61 in 3.0 mi NNW 3.5 mph - N/A   Overcast
3:17 PM 33.8 °F 29.6 °F 32.0 °F 93% 29.60 in 8.0 mi North 4.6 mph - N/A   Overcast
4:25 PM 33.8 °F - 32.0 °F 93% 29.62 in 10.0 mi Calm Calm - N/A   Overcast
4:53 PM 33.1 °F - 32.0 °F 96% 29.65 in 10.0 mi Calm Calm - N/A   Overcast
5:33 PM 33.8 °F 30.8 °F 32.0 °F 93% 29.64 in 5.0 mi NW 3.5 mph - N/A   Overcast
5:53 PM 33.1 °F - 33.1 °F 100% 29.68 in 2.5 mi Calm Calm - N/A   Overcast
6:29 PM 33.8 °F - 33.8 °F 100% 29.67 in 4.0 mi Calm Calm - N/A   Overcast
6:53 PM 33.1 °F 30.0 °F 33.1 °F 100% 29.71 in 7.0 mi North 3.5 mph - N/A   Overcast
7:21 PM 33.8 °F 30.8 °F 32.0 °F 93% 29.70 in 9.0 mi NNW 3.5 mph - N/A   Overcast
7:53 PM 34.0 °F 29.8 °F 32.0 °F 92% 29.72 in 10.0 mi NE 4.6 mph - N/A   Overcast
8:24 PM 33.8 °F - 32.0 °F 93% 29.72 in 10.0 mi Calm Calm - N/A   Overcast
8:37 PM 33.8 °F - 32.0 °F 93% 29.73 in 10.0 mi Calm Calm - N/A   Overcast
8:53 PM 33.1 °F 28.7 °F 32.0 °F 96% 29.77 in 10.0 mi NW 4.6 mph - N/A   Overcast
9:11 PM 33.8 °F 27.0 °F 30.2 °F 87% 29.74 in 10.0 mi NNW 8.1 mph - N/A   Overcast
9:53 PM 33.1 °F 23.9 °F 30.0 °F 89% 29.78 in 10.0 mi NW 12.7 mph 21.9 mph 0.00 in   Overcast
10:42 PM 32.0 °F - 28.4 °F 87% 29.82 in 10.0 mi Calm Calm - 0.00 in   Overcast
10:53 PM 32.0 °F 23.6 °F 28.9 °F 88% 29.85 in 10.0 mi NNW 10.4 mph - 0.00 in   Overcast
11:53 PM 32.0 °F 27.5 °F 28.9 °F 88% 29.87 in 10.0 mi NNW 4.6 mph - N/A   Overcast